Regional Weather Roundup
Issued by NWS Little Rock, AR

Home | Current Version | Previous Version | Graphics & Text | Print | Product List | Glossary On
Versions: 1 2 3 4 5 6 7 8 9 10 11 12 13 14 15 16 17 18 19 20 21 22 23 24 25 26 27 28 29 30 31 32 33 34 35 36 37 38 39 40 41 42 43 44 45 46 47 48 49 50
436
ASUS44 KLZK 271105
RWRLZK

WEATHER ROUNDUP FOR ARKANSAS
NATIONAL WEATHER SERVICE LITTLE ROCK AR
600 AM CDT TUE SEP 27 2016

NOTE: "FAIR" INDICATES FEW OR NO CLOUDS BELOW 12,000 FEET WITH NO
SIGNIFICANT WEATHER AND/OR OBSTRUCTIONS TO VISIBILITY.

ARZ001-003-010-029-271200-
NORTHWEST ARKANSAS

CITY           SKY/WX    TMP DP  RH WIND       PRES   REMARKS
FAYETTEVILLE   CLEAR     45  45 100 CALM      30.14S
FORT SMITH     CLOUDY    52  48  86 CALM      30.11F
HARRISON       CLEAR     46  42  86 CALM      30.12F
BENTONVILLE    CLEAR     46  41  81 CALM      30.13R
ROGERS         CLEAR     49  48  97 CALM      30.14R
SILOAM SPGS    CLEAR     46  37  71 CALM      30.13S
HIGHFILL       CLEAR     44  43  96 CALM      30.13S
SPRINGDALE     CLEAR     46  46 100 SE3       30.14
$$

ARZ004-005-016-271200-
NORTH CENTRAL ARKANSAS

CITY           SKY/WX    TMP DP  RH WIND       PRES   REMARKS
BATESVILLE     CLEAR     50  46  87 W3        30.10S
FLIPPIN        CLEAR     46  43  87 CALM      30.09S
MTN HOME       FOG       53  53 100 CALM      30.10F VSB 1/4
$$

ARZ040-041-271200-
WEST CENTRAL ARKANSAS

CITY           SKY/WX    TMP DP  RH WIND       PRES   REMARKS
MENA           MOCLDY    52  52 100 CALM      30.12S
MOUNT IDA      PTCLDY    55  53  93 CALM      30.09R
$$

ARZ009-017-025-026-028-271200-
NORTHEAST ARKANSAS

CITY           SKY/WX    TMP DP  RH WIND       PRES   REMARKS
CORNING          N/A     48  48 100 CALM      30.08S
JONESBORO      CLEAR     50  48  93 CALM      30.08R
NEWPORT        CLEAR     51  48  89 W3        30.09S
WALNUT RIDGE   CLEAR     52  45  76 S3        30.08S
BLYTHEVILLE    CLEAR     52  50  93 CALM      30.07S
$$

ARZ022-023-033-042-044-271200-
CENTRAL ARKANSAS

CITY           SKY/WX    TMP DP  RH WIND       PRES   REMARKS
LITTLE ROCK    CLOUDY    59  49  69 NW7       30.09R
N LITTLE ROCK    N/A     58  50  74 N5        30.07R
JACKSONVILLE   PTCLDY    53  50  91 W5        30.09R
SEARCY         CLOUDY    53  48  83 CALM      30.11R
HOT SPRINGS    CLOUDY    58  53  84 CALM      30.10R
RUSSELLVILLE   CLOUDY    50  49  96 CALM      30.11S
$$

ARZ036-271200-
EAST ARKANSAS

CITY           SKY/WX    TMP DP  RH WIND       PRES   REMARKS
WEST MEMPHIS   CLOUDY    54  52  93 NW3       30.06S
$$

ARZ050-053-066-070-073-271200-
SOUTHWEST ARKANSAS

CITY           SKY/WX    TMP DP  RH WIND       PRES   REMARKS
ARKADELPHIA    FAIR      59  57  93 N3        30.09S
TEXARKANA      CLOUDY    66  59  78 NE3       30.08S
EL DORADO      CLOUDY    62  57  83 CALM      30.07R
DE QUEEN       CLEAR     57  57 100 CALM      30.08S
$$

ARZ056-057-069-271200-
SOUTHEAST ARKANSAS

CITY           SKY/WX    TMP DP  RH WIND       PRES   REMARKS
PINE BLUFF     CLOUDY    59  55  87 N3        30.08R
STUTTGART      CLOUDY    55  48  76 N6        30.08S
MONTICELLO     CLOUDY    61  56  83 N5        30.06R

$$






USA.gov is the U.S. government's official web portal to all federal, state and local government web resources and services.